Tracking 31027 objects as of 19-Jul-2025
HD Live streaming from Space Station
objects crossing your sky now

STARLINK-5674

Track STARLINK-5674 now!
10-day predictions
STARLINK-5674 is classified as:


NORAD ID: 55465
Int'l Code: 2023-015S
Perigee: 565.3 km
Apogee: 567.1 km
Inclination: 43.0 °
Period: 95.8 minutes
Semi major axis: 6937 km
RCS: Unknown
Launch date: February 2, 2023
Source: United States (US)
Launch site: AIR FORCE EASTERN TEST RANGE (AFETR)
Your satellite tracking list
NOAA 16 DEB
Track 1 satellite(s)




NASA's NSSDC Master Catalog

Two Line Element Set (TLE):
1 55465U 23015S   25199.61135421  .00000774  00000-0  72324-4 0  9995
2 55465  43.0032 157.8115 0001252 267.7290  92.3409 15.02538492135544
Source of the keplerian elements: AFSPC